datetime,min air temp
1999-03-31,23.42
1999-04-01,26.04
1999-04-02,28.52
1999-04-03,24.31
1999-04-04,15.17
1999-04-05,24.07
1999-04-06,28.86
1999-04-07,24.17
1999-04-08,24.58
1999-04-09,21.52
1999-04-10,30.19
1999-04-11,33.5
1999-04-12,28.52
1999-04-13,31.28
1999-04-14,33.66
1999-04-15,31.91
1999-04-16,29.49
1999-04-17,37.57
1999-04-18,40.62
1999-04-19,39.71
1999-04-20,36.44
1999-04-21,37.57
1999-04-22,33.8
1999-04-23,39.34
1999-04-24,37.14
1999-04-25,33.24
1999-04-26,31.48
1999-04-27,24.65
1999-04-28,27.95
1999-04-29,35.95
1999-04-30,41.33
1999-05-01,39.01
1999-05-02,34.52
1999-05-03,33.76
1999-05-04,31.75
1999-05-05,24.58
1999-05-06,34.62
1999-05-07,26.11
1999-05-08,26.41
1999-05-09,21.03
1999-05-10,28.26
1999-05-11,43.21
1999-05-12,36.54
1999-05-13,28.22
1999-05-14,32.01
1999-05-15,22.7
1999-05-16,25.77
1999-05-17,43.63
1999-05-18,34.72
1999-05-19,32.54
1999-05-20,41.47
1999-05-21,33.0
1999-05-22,43.42
1999-05-23,47.76
1999-05-24,45.37
1999-05-25,42.05
1999-05-26,47.22
1999-05-27,44.63
1999-05-28,46.72
1999-05-29,47.62
1999-05-30,36.38
1999-05-31,39.37
1999-06-01,42.59
1999-06-02,32.21
1999-06-03,40.79
1999-06-04,32.61
1999-06-05,42.05
1999-06-06,34.26
1999-06-07,28.19
1999-06-08,28.42
1999-06-09,31.52
1999-06-10,33.33
1999-06-11,38.04
1999-06-12,41.47
1999-06-13,47.48
1999-06-14,46.04
1999-06-15,46.76
1999-06-16,45.51
1999-06-17,42.97
1999-06-18,44.95
1999-06-19,42.18
1999-06-20,43.42
1999-06-21,50.57
1999-06-22,42.9
1999-06-23,43.87
1999-06-24,45.83
1999-06-25,37.81
1999-06-26,37.04
1999-06-27,35.78
1999-06-28,46.47
1999-06-29,47.55
1999-06-30,55.07
1999-07-01,49.75
1999-07-02,42.94
1999-07-03,36.68
1999-07-04,33.93
1999-07-05,47.76
1999-07-06,43.21
1999-07-07,42.52
1999-07-08,47.98
1999-07-09,46.83
1999-07-10,50.35
1999-07-11,58.15
1999-07-12,62.51
1999-07-13,56.17
1999-07-14,48.75
1999-07-15,38.2
1999-07-16,43.14
1999-07-17,40.05
1999-07-18,44.25
1999-07-19,42.59
1999-07-20,44.91
1999-07-21,42.18
1999-07-22,42.46
1999-07-23,45.44
1999-07-24,50.65
1999-07-25,44.77
1999-07-26,54.5
1999-07-27,48.06
1999-07-28,47.69
1999-07-29,45.37
1999-07-30,44.98
1999-07-31,46.4
1999-08-01,48.31
1999-08-02,45.83
1999-08-03,47.98
1999-08-04,50.69
1999-08-05,52.29
1999-08-06,50.27
1999-08-07,42.83
1999-08-08,42.8
1999-08-09,47.73
1999-08-10,51.91
1999-08-11,51.68
1999-08-12,49.19
1999-08-13,51.52
1999-08-14,47.19
1999-08-15,38.34
1999-08-16,44.67
1999-08-17,45.76
1999-08-18,44.88
1999-08-19,46.54
1999-08-20,47.19
1999-08-21,45.79
1999-08-22,57.47
1999-08-23,53.15
1999-08-24,47.15
1999-08-25,48.57
1999-08-26,52.45
1999-08-27,55.64
1999-08-28,54.3
1999-08-29,49.97
1999-08-30,40.21
1999-08-31,30.72
1999-09-01,32.57
1999-09-02,38.81
1999-09-03,37.64
1999-09-04,37.84
1999-09-05,40.08
1999-09-06,40.18
1999-09-07,45.41
1999-09-08,46.11
1999-09-09,44.35
1999-09-10,50.54
1999-09-11,44.46
1999-09-12,50.09
1999-09-13,53.15
1999-09-14,52.72
1999-09-15,46.18
1999-09-16,42.01
1999-09-17,42.01
1999-09-18,53.03
1999-09-19,53.39
1999-09-20,48.31
1999-09-21,42.08
1999-09-22,42.56
1999-09-23,44.56
1999-09-24,42.9
1999-09-25,44.32
1999-09-26,32.64
1999-09-27,31.71
1999-09-28,37.54
1999-09-29,32.24
1999-09-30,35.78
1999-10-01,41.03
1999-10-02,40.99
1999-10-03,32.57
1999-10-04,34.69
1999-10-05,35.22
1999-10-06,34.66
1999-10-07,29.32
1999-10-08,34.16
1999-10-09,35.71
1999-10-10,37.17
1999-10-11,39.44
1999-10-12,32.87
1999-10-13,32.61
1999-10-14,36.21
1999-10-15,29.26
1999-10-16,30.62
1999-10-17,32.38
1999-10-18,25.73
1999-10-19,31.95
1999-10-20,27.92
1999-10-21,29.72
1999-10-22,29.42
1999-10-23,30.35
1999-10-24,30.35
1999-10-25,27.45
1999-10-26,37.01
1999-10-27,36.91
1999-10-28,35.62
1999-10-29,24.38
1999-10-30,28.06
1999-10-31,35.32
1999-11-01,28.59
1999-11-02,21.97
1999-11-03,27.08
1999-11-04,44.18
1999-11-05,42.08
1999-11-06,47.8
1999-11-07,42.49
1999-11-08,38.4
1999-11-09,39.44
1999-11-10,40.21
1999-11-11,44.22
1999-11-12,35.98
1999-11-13,26.88
1999-11-14,24.82
1999-11-15,39.34
1999-11-16,34.33
1999-11-17,26.38
1999-11-18,24.85
1999-11-19,34.06
1999-11-20,31.52
1999-11-21,23.83
1999-11-22,17.62
1999-11-23,22.14
1999-11-24,28.12
1999-11-25,39.71
1999-11-26,35.48
1999-11-27,25.26
1999-11-28,22.42
1999-11-29,37.01
1999-11-30,31.88
1999-12-01,30.52
1999-12-02,26.88
1999-12-03,19.11
1999-12-04,18.65
1999-12-05,27.79
1999-12-06,31.25
1999-12-07,19.28
1999-12-08,17.01
1999-12-09,14.99
1999-12-10,9.0
1999-12-11,30.0
1999-12-12,30.0
1999-12-13,23.62
1999-12-14,20.48
1999-12-15,25.97
1999-12-16,31.05
1999-12-17,31.02
1999-12-18,27.45
1999-12-19,23.76
1999-12-20,22.49
1999-12-21,21.45
1999-12-22,18.58
1999-12-23,17.9
1999-12-24,18.93
1999-12-25,20.16
1999-12-26,21.83
1999-12-27,16.65
1999-12-28,17.83
1999-12-29,15.28
1999-12-30,15.43
1999-12-31,13.75
2000-01-01,14.74
2000-01-02,23.14
2000-01-03,24.68
2000-01-04,30.49
2000-01-05,19.25
2000-01-06,14.26
2000-01-07,26.34
2000-01-08,27.08
2000-01-09,25.23
2000-01-10,32.94
2000-01-11,27.12
2000-01-12,22.56
2000-01-13,32.11
2000-01-14,35.91
2000-01-15,33.1
2000-01-16,31.35
2000-01-17,25.87
2000-01-18,31.55
2000-01-19,30.92
2000-01-20,28.09
2000-01-21,27.59
2000-01-22,28.32
2000-01-23,29.06
2000-01-24,33.24
2000-01-25,30.35
2000-01-26,26.14
2000-01-27,23.83
2000-01-28,18.12
2000-01-29,17.97
2000-01-30,27.28
2000-01-31,16.44
2000-02-01,33.76
2000-02-02,29.09
2000-02-03,31.98
2000-02-04,30.12
2000-02-05,37.21
2000-02-06,29.99
2000-02-07,33.96
2000-02-08,32.9
2000-02-09,27.18
2000-02-10,36.24
2000-02-11,35.85
2000-02-12,32.41
2000-02-13,32.81
2000-02-14,34.52
2000-02-15,26.34
2000-02-16,31.85
2000-02-17,27.32
2000-02-18,22.9
2000-02-19,18.68
2000-02-20,38.57
2000-02-21,34.85
2000-02-22,29.72
2000-02-23,22.59
2000-02-24,20.16
2000-02-25,29.79
2000-02-26,32.84
2000-02-27,30.49
2000-02-28,28.22
2000-02-29,24.89
2000-03-01,19.56
2000-03-02,32.24
2000-03-03,29.42
2000-03-04,28.79
2000-03-05,30.12
2000-03-06,24.78
2000-03-07,23.83
2000-03-08,30.39
2000-03-09,27.92
2000-03-10,26.04
2000-03-11,28.12
2000-03-12,22.46
2000-03-13,27.18
2000-03-14,33.24
2000-03-15,23.49
2000-03-16,29.29
2000-03-17,21.28
2000-03-18,29.62
2000-03-19,27.55
2000-03-20,22.7
2000-03-21,25.87
2000-03-22,26.41
2000-03-23,27.79
2000-03-24,21.94
2000-03-25,28.22
2000-03-26,24.85
2000-03-27,30.89
2000-03-28,23.52
2000-03-29,18.9
2000-03-30,26.41
2000-03-31,36.68
2000-04-01,41.03
2000-04-02,33.66
2000-04-03,33.73
2000-04-04,36.97
2000-04-05,27.25
2000-04-06,29.12
2000-04-07,27.62
2000-04-08,38.77
2000-04-09,35.85
2000-04-10,25.94
2000-04-11,32.87
2000-04-12,39.68
2000-04-13,38.4
2000-04-14,35.65
2000-04-15,40.15
2000-04-16,35.55
2000-04-17,40.79
2000-04-18,33.33
2000-04-19,37.11
2000-04-20,38.85
2000-04-21,33.88
2000-04-22,37.02
2000-04-23,32.5
2000-04-24,22.46
2000-04-25,35.72
2000-04-26,31.22
2000-04-27,35.08
2000-04-28,25.17
2000-04-29,21.89
2000-04-30,32.02
2000-05-01,33.29
2000-05-02,30.95
2000-05-03,42.2
2000-05-04,40.07
2000-05-05,27.31
2000-05-06,34.06
2000-05-07,37.04
2000-05-08,35.98
2000-05-09,35.98
2000-05-10,30.41
2000-05-11,30.07
2000-05-12,24.6
2000-05-13,39.35
2000-05-14,39.14
2000-05-15,38.39
2000-05-16,40.27
2000-05-17,34.18
2000-05-18,31.23
2000-05-19,42.49
2000-05-20,37.57
2000-05-21,42.74
2000-05-22,43.66
2000-05-23,44.88
2000-05-24,42.86
2000-05-25,41.48
2000-05-26,43.28
2000-05-27,51.75
2000-05-28,46.55
2000-05-29,41.38
2000-05-30,36.27
2000-05-31,25.57
2000-06-01,36.74
2000-06-02,38.79
2000-06-03,41.17
2000-06-04,41.74
2000-06-05,44.84
2000-06-06,39.01
2000-06-07,41.14
2000-06-08,38.64
2000-06-09,36.9
2000-06-10,34.47
2000-06-11,33.61
2000-06-12,46.58
2000-06-13,36.01
2000-06-14,55.01
2000-06-15,55.29
2000-06-16,48.48
2000-06-17,45.99
2000-06-18,45.31
2000-06-19,40.9
2000-06-20,46.05
2000-06-21,56.29
2000-06-22,50.91
2000-06-23,51.44
2000-06-24,53.13
2000-06-25,50.99
2000-06-26,55.87
2000-06-27,53.34
2000-06-28,50.32
2000-06-29,57.13
2000-06-30,51.57
2000-07-01,45.98
2000-07-02,42.23
2000-07-03,38.63
2000-07-04,34.66
2000-07-05,44.46
2000-07-06,38.79
2000-07-07,42.75
2000-07-08,47.83
2000-07-09,43.02
2000-07-10,43.02
2000-07-11,46.34
2000-07-12,48.37
2000-07-13,47.77
2000-07-14,44.43
2000-07-15,52.6
2000-07-16,57.44
2000-07-17,57.33
2000-07-18,50.32
2000-07-19,49.31
2000-07-20,50.79
2000-07-21,52.79
2000-07-22,50.3
2000-07-23,46.18
2000-07-24,48.91
2000-07-25,48.18
2000-07-26,46.49
2000-07-27,46.24
2000-07-28,48.5
2000-07-29,53.34
2000-07-30,54.11
2000-07-31,57.36
2000-08-01,61.03
2000-08-02,50.94
2000-08-03,53.96
2000-08-04,57.61
2000-08-05,50.95
2000-08-06,50.83
2000-08-07,49.85
2000-08-08,61.93
2000-08-09,52.51
2000-08-10,44.06
2000-08-11,41.95
2000-08-12,45.11
2000-08-13,44.2
2000-08-14,44.5
2000-08-15,46.16
2000-08-16,43.41
2000-08-17,44.19
2000-08-18,40.06
2000-08-19,41.15
2000-08-20,41.24
2000-08-21,51.09
2000-08-22,54.6
2000-08-23,44.35
2000-08-24,42.79
2000-08-25,43.14
2000-08-26,44.57
2000-08-27,44.16
2000-08-28,48.09
2000-08-29,44.79
2000-08-30,43.8
2000-08-31,43.87
2000-09-01,43.08
2000-09-02,39.78
2000-09-03,39.72
2000-09-04,41.66
2000-09-05,40.18
2000-09-06,34.02
2000-09-07,38.09
2000-09-08,41.29
2000-09-09,33.57
2000-09-10,37.38
2000-09-11,42.47
2000-09-12,46.41
2000-09-13,48.56
2000-09-14,46.56
2000-09-15,46.9
2000-09-16,42.5
2000-09-17,40.66
2000-09-18,52.61
2000-09-19,50.08
2000-09-20,50.84
2000-09-21,41.61
2000-09-22,38.86
2000-09-23,25.54
2000-09-24,28.61
2000-09-25,30.51
2000-09-26,32.27
2000-09-27,31.88
2000-09-28,40.52
2000-09-29,36.14
2000-09-30,39.56
2000-10-01,43.28
2000-10-02,33.04
2000-10-03,31.47
2000-10-04,41.39
2000-10-05,41.86
2000-10-06,42.82
2000-10-07,37.07
2000-10-08,35.62
2000-10-09,40.47
2000-10-10,38.33
2000-10-11,33.76
2000-10-12,30.43
2000-10-13,34.41
2000-10-14,28.52
2000-10-15,28.05
2000-10-16,28.78
2000-10-17,29.23
2000-10-18,32.05
2000-10-19,32.05
2000-10-20,37.35
2000-10-21,30.83
2000-10-22,27.13
2000-10-23,23.78
2000-10-24,24.81
2000-10-25,39.43
2000-10-26,26.97
2000-10-27,24.12
2000-10-28,33.0
2000-10-29,31.99
2000-10-30,32.34
2000-10-31,22.65
2000-11-01,25.17
2000-11-02,37.94
2000-11-03,30.97
2000-11-04,24.05
2000-11-05,29.93
2000-11-06,28.39
2000-11-07,22.1
2000-11-08,29.35
2000-11-09,20.38
2000-11-10,17.88
2000-11-11,17.58
2000-11-12,14.3
2000-11-13,15.15
2000-11-14,15.26
2000-11-15,12.7
2000-11-16,10.19
2000-11-17,9.7
2000-11-18,11.58
2000-11-19,15.53
2000-11-20,11.89
2000-11-21,26.64
2000-11-22,18.78
2000-11-23,18.86
2000-11-24,22.31
2000-11-25,22.89
2000-11-26,27.01
2000-11-27,28.75
2000-11-28,28.69
2000-11-29,31.15
2000-11-30,27.35
2000-12-01,22.48
2000-12-02,20.7
2000-12-03,22.55
2000-12-04,21.93
2000-12-05,18.75
2000-12-06,20.82
2000-12-07,19.3
2000-12-08,23.87
2000-12-09,31.78
2000-12-10,19.87
2000-12-11,19.26
2000-12-12,25.45
2000-12-13,27.41
2000-12-14,22.38
2000-12-15,30.81
2000-12-16,21.88
2000-12-17,19.7
2000-12-18,14.87
2000-12-19,24.43
2000-12-20,27.55
2000-12-21,27.38
2000-12-22,28.14
2000-12-23,26.66
2000-12-24,19.02
2000-12-25,17.92
2000-12-26,18.78
2000-12-27,22.07
2000-12-28,17.46
2000-12-29,19.78
2000-12-30,19.04
2000-12-31,21.41
2001-01-01,23.2
2001-01-02,26.73
2001-01-03,19.4
2001-01-04,22.59
2001-01-05,23.63
2001-01-06,24.07
2001-01-07,22.47
2001-01-08,22.01
2001-01-09,19.03
2001-01-10,21.62
2001-01-11,27.08
2001-01-12,25.33
2001-01-13,17.83
2001-01-14,12.27
2001-01-15,21.97
2001-01-16,13.25
2001-01-17,7.88
2001-01-18,18.49
2001-01-19,22.79
2001-01-20,19.18
2001-01-21,33.2
2001-01-22,29.17
2001-01-23,30.92
2001-01-24,21.32
2001-01-25,19.3
2001-01-26,21.9
2001-01-27,23.89
2001-01-28,11.66
2001-01-29,21.32
2001-01-30,13.42
2001-01-31,9.88
2001-02-01,16.07
2001-02-02,33.17
2001-02-03,32.97
2001-02-04,24.61
2001-02-05,23.91
2001-02-06,24.56
2001-02-07,15.06
2001-02-08,10.04
2001-02-09,23.56
2001-02-10,16.54
2001-02-11,20.67
2001-02-12,17.27
2001-02-13,15.35
2001-02-14,14.13
2001-02-15,17.62
2001-02-16,32.12
2001-02-17,29.54
2001-02-18,29.49
2001-02-19,30.95
2001-02-20,29.47
2001-02-21,31.52
2001-02-22,25.62
2001-02-23,23.79
2001-02-24,24.72
2001-02-25,24.33
2001-02-26,27.62
2001-02-27,24.46
2001-02-28,16.61
2001-03-01,18.25
2001-03-02,19.73
2001-03-03,16.3
2001-03-04,32.46
2001-03-05,30.54
2001-03-06,30.25
2001-03-07,32.66
2001-03-08,24.9
2001-03-09,23.62
2001-03-10,25.05
2001-03-11,18.9
2001-03-12,22.75
2001-03-13,19.47
2001-03-14,19.76
2001-03-15,23.52
2001-03-16,20.88
2001-03-17,32.61
2001-03-18,37.15
2001-03-19,40.77
2001-03-20,37.78
2001-03-21,38.7
2001-03-22,30.62
2001-03-23,35.2
2001-03-24,37.83
2001-03-25,32.52
2001-03-26,27.32
2001-03-27,23.86
2001-03-28,34.29
2001-03-29,28.29
2001-03-30,26.77
2001-03-31,28.11
2001-04-01,24.38
2001-04-02,24.44
2001-04-03,20.67
2001-04-04,16.75
2001-04-05,19.06
2001-04-06,28.39
2001-04-07,24.98
2001-04-08,23.04
2001-04-09,17.54
2001-04-10,22.48
2001-04-11,29.19
2001-04-12,20.99
2001-04-13,26.66
2001-04-14,20.13
2001-04-15,25.78
2001-04-16,35.08
2001-04-17,32.88
2001-04-18,34.21
2001-04-19,28.34
2001-04-20,31.32
2001-04-21,32.69
2001-04-22,28.2
2001-04-23,37.1
2001-04-24,34.43
2001-04-25,39.12
2001-04-26,39.46
2001-04-27,35.8
2001-04-28,30.32
2001-04-29,24.12
2001-04-30,38.18
2001-05-01,32.97
2001-05-02,23.05
2001-05-03,29.87
2001-05-04,29.87
2001-05-05,37.98
2001-05-06,27.13
2001-05-07,32.66
2001-05-08,35.4
2001-05-09,32.25
2001-05-10,30.03
2001-05-11,37.87
2001-05-12,47.03
2001-05-13,34.01
2001-05-14,43.69
2001-05-15,46.54
2001-05-16,40.33
2001-05-17,32.19
2001-05-18,38.85
2001-05-19,42.04
2001-05-20,43.85
2001-05-21,45.12
2001-05-22,42.86
2001-05-23,47.75
2001-05-24,48.25
2001-05-25,47.87
2001-05-26,51.97
2001-05-27,47.36
2001-05-28,34.02
2001-05-29,32.73
2001-05-30,40.02
2001-05-31,48.26
2001-06-01,46.55
2001-06-02,36.54
2001-06-03,29.39
2001-06-04,26.3
2001-06-05,42.62
2001-06-06,33.34
2001-06-07,37.49
2001-06-08,42.13
2001-06-09,43.27
2001-06-10,37.74
2001-06-11,43.0
2001-06-12,41.38
2001-06-13,28.22
2001-06-14,34.59
2001-06-15,35.35
2001-06-16,35.35
2001-06-17,35.87
2001-06-18,34.82
2001-06-19,48.93
2001-06-20,47.24
2001-06-21,48.45
2001-06-22,43.45
2001-06-23,42.41
2001-06-24,40.04
2001-06-25,38.84
2001-06-26,43.76
2001-06-27,48.98
2001-06-28,42.31
2001-06-29,39.26
2001-06-30,50.57
2001-07-01,41.3
2001-07-02,44.8
2001-07-03,60.91
2001-07-04,51.78
2001-07-05,59.04
2001-07-06,47.23
2001-07-07,46.69
2001-07-08,45.51
2001-07-09,50.32
2001-07-10,51.99
2001-07-11,47.46
2001-07-12,43.49
2001-07-13,44.85
2001-07-14,52.11
2001-07-15,43.56
2001-07-16,46.86
2001-07-17,37.52
2001-07-18,39.29
2001-07-19,45.78
2001-07-20,49.31
2001-07-21,45.55
2001-07-22,41.28
2001-07-23,51.82
2001-07-24,46.98
2001-07-25,50.38
2001-07-26,46.98
2001-07-27,46.47
2001-07-28,42.16
2001-07-29,41.98
2001-07-30,49.46
2001-07-31,36.26
2001-08-01,42.52
2001-08-02,44.84
2001-08-03,43.71
2001-08-04,55.34
2001-08-05,44.43
2001-08-06,46.58
2001-08-07,52.43
2001-08-08,65.16
2001-08-09,57.44
2001-08-10,55.56
2001-08-11,50.96
2001-08-12,50.61
2001-08-13,48.43
2001-08-14,46.27
2001-08-15,49.24
2001-08-16,50.83
2001-08-17,48.93
2001-08-18,46.19
2001-08-19,40.73
2001-08-20,43.32
2001-08-21,42.75
2001-08-22,49.43
2001-08-23,46.58
2001-08-24,40.22
2001-08-25,49.39
2001-08-26,46.95
2001-08-27,44.38
2001-08-28,45.38
2001-08-29,57.56
2001-08-30,49.05
2001-08-31,45.22
2001-09-01,45.57
2001-09-02,44.74
2001-09-03,43.14
2001-09-04,42.89
2001-09-05,41.56
2001-09-06,29.95
2001-09-07,36.48
2001-09-08,39.44
2001-09-09,35.75
2001-09-10,41.43
2001-09-11,39.55
2001-09-12,49.43
2001-09-13,50.61
2001-09-14,44.3
2001-09-15,48.6
2001-09-16,44.5
2001-09-17,41.43
2001-09-18,39.82
2001-09-19,35.98
2001-09-20,36.61
2001-09-21,35.99
2001-09-22,37.52
2001-09-23,40.36
2001-09-24,40.37
2001-09-25,41.37
2001-09-26,37.32
2001-09-27,35.88
2001-09-28,33.71
2001-09-29,31.82
2001-09-30,41.74
2001-10-01,37.26
2001-10-02,38.93
2001-10-03,35.59
2001-10-04,35.3
2001-10-05,47.26
2001-10-06,34.72
2001-10-07,29.36
2001-10-08,32.65
2001-10-09,19.61
2001-10-10,25.42
2001-10-11,33.8
2001-10-12,24.71
2001-10-13,30.07
2001-10-14,29.07
2001-10-15,32.63
2001-10-16,41.19
2001-10-17,36.07
2001-10-18,22.5
2001-10-19,25.71
2001-10-20,29.95
2001-10-21,29.22
2001-10-22,44.69
2001-10-23,23.36
2001-10-24,15.34
2001-10-25,19.99
2001-10-26,22.92
2001-10-27,32.38
2001-10-28,33.89
2001-10-29,43.23
2001-10-30,37.02
2001-10-31,35.39
2001-11-01,29.87
2001-11-02,26.88
2001-11-03,19.47
2001-11-04,21.44
2001-11-05,24.7
2001-11-06,21.92
2001-11-07,18.17
2001-11-08,16.28
2001-11-09,20.84
2001-11-10,24.0
2001-11-11,44.78
2001-11-12,32.91
2001-11-13,31.0
2001-11-14,41.06
2001-11-15,38.67
2001-11-16,34.55
2001-11-17,25.28
2001-11-18,22.1
2001-11-19,32.87
2001-11-20,27.07
2001-11-21,34.17
2001-11-22,31.97
2001-11-23,23.13
2001-11-24,27.54
2001-11-25,23.58
2001-11-26,4.2
2001-11-27,5.45
2001-11-28,20.86
2001-11-29,21.23
2001-11-30,23.87
2001-12-01,30.2
2001-12-02,27.29
2001-12-03,11.59
2001-12-04,11.61
2001-12-05,30.64
2001-12-06,30.46
2001-12-07,18.8
2001-12-08,20.56
2001-12-09,12.27
2001-12-10,13.71
2001-12-11,13.29
2001-12-12,8.7
2001-12-13,28.49
2001-12-14,21.93
2001-12-15,19.77
2001-12-16,30.61
2001-12-17,25.56
2001-12-18,21.48
2001-12-19,30.4
2001-12-20,24.65
2001-12-21,18.95
2001-12-22,21.96
2001-12-23,18.76
2001-12-24,16.5
2001-12-25,22.76
2001-12-26,28.43
2001-12-27,29.26
2001-12-28,23.93
2001-12-29,32.31
2001-12-30,31.28
2001-12-31,31.0
2002-01-01,32.3
2002-01-02,34.27
2002-01-03,26.34
2002-01-04,25.19
2002-01-05,29.93
2002-01-06,37.81
2002-01-07,40.65
2002-01-08,30.48
2002-01-09,28.54
2002-01-10,25.59
2002-01-11,27.31
2002-01-12,23.9
2002-01-13,20.56
2002-01-14,20.56
2002-01-15,16.85
2002-01-16,14.22
2002-01-17,19.33
2002-01-18,13.74
2002-01-19,20.39
2002-01-20,25.11
2002-01-21,14.52
2002-01-22,9.46
2002-01-23,14.62
2002-01-24,14.14
2002-01-25,21.35
2002-01-26,19.11
2002-01-27,5.25
2002-01-28,2.29
2002-01-29,3.42
2002-01-30,6.8100000000000005
2002-01-31,7.73
2002-02-01,18.93
2002-02-02,12.19
2002-02-03,16.23
2002-02-04,15.43
2002-02-05,13.8
2002-02-06,22.57
2002-02-07,26.82
2002-02-08,22.04
2002-02-09,20.78
2002-02-10,24.37
2002-02-11,28.39
2002-02-12,26.92
2002-02-13,31.85
2002-02-14,27.66
2002-02-15,25.11
2002-02-16,32.81
2002-02-17,28.05
2002-02-18,21.37
2002-02-19,32.69
2002-02-20,35.56
2002-02-21,35.71
2002-02-22,30.6
2002-02-23,33.3
2002-02-24,26.32
2002-02-25,27.32
2002-02-26,25.17
2002-02-27,28.02
2002-02-28,26.19
2002-03-01,15.98
2002-03-02,24.82
2002-03-03,20.28
2002-03-04,20.06
2002-03-05,24.98
2002-03-06,27.63
2002-03-07,20.13
2002-03-08,13.84
2002-03-09,23.18
2002-03-10,31.07
2002-03-11,36.26
2002-03-12,27.03
2002-03-13,21.96
2002-03-14,21.04
2002-03-15,19.99
2002-03-16,19.92
2002-03-17,18.82
2002-03-18,11.14
2002-03-19,28.61
2002-03-20,26.1
2002-03-21,33.44
2002-03-22,36.27
2002-03-23,30.57
2002-03-24,26.03
2002-03-25,20.91
2002-03-26,21.27
2002-03-27,25.34
2002-03-28,24.97
2002-03-29,23.67
2002-03-30,20.97
2002-03-31,23.01
2002-04-01,25.8
2002-04-02,34.37
2002-04-03,40.55
2002-04-04,33.53
2002-04-05,40.59
2002-04-06,34.75
2002-04-07,26.59
2002-04-08,26.88
2002-04-09,42.23
2002-04-10,36.87
2002-04-11,37.77
2002-04-12,29.75
2002-04-13,38.72
2002-04-14,37.01
2002-04-15,29.58
2002-04-16,27.72
2002-04-17,25.66
2002-04-18,25.82
2002-04-19,34.16
2002-04-20,23.99
2002-04-21,24.48
2002-04-22,27.4
2002-04-23,31.79
2002-04-24,34.19
2002-04-25,32.71
2002-04-26,33.29
2002-04-27,31.56
2002-04-28,29.67
2002-04-29,32.16
2002-04-30,31.94
2002-05-01,33.69
2002-05-02,30.65
2002-05-03,33.45
2002-05-04,28.65
2002-05-05,39.86
2002-05-06,34.16
2002-05-07,27.98
2002-05-08,23.72
2002-05-09,32.3
2002-05-10,35.76
2002-05-11,26.88
2002-05-12,31.06
2002-05-13,41.7
2002-05-14,29.95
2002-05-15,38.8
2002-05-16,32.6
2002-05-17,43.44
2002-05-18,39.7
2002-05-19,37.53
2002-05-20,32.66
2002-05-21,33.04
2002-05-22,28.5
2002-05-23,27.99
2002-05-24,36.07
2002-05-25,43.69
2002-05-26,47.36
2002-05-27,45.89
2002-05-28,48.85
2002-05-29,53.18
2002-05-30,45.25
2002-05-31,41.53
2002-06-01,46.9
2002-06-02,37.39
2002-06-03,39.21
2002-06-04,41.68
2002-06-05,45.94
2002-06-06,38.32
2002-06-07,40.76
2002-06-08,27.64
2002-06-09,32.83
2002-06-10,38.18
2002-06-11,38.42
2002-06-12,53.47
2002-06-13,42.83
2002-06-14,46.77
2002-06-15,45.46
2002-06-16,45.55
2002-06-17,42.84
2002-06-18,43.92
2002-06-19,34.08
2002-06-20,45.04
2002-06-21,55.19
2002-06-22,45.51
2002-06-23,47.84
2002-06-24,47.07
2002-06-25,54.28
2002-06-26,54.95
2002-06-27,58.89
2002-06-28,56.55
2002-06-29,57.92
2002-06-30,45.37
2002-07-01,43.17
2002-07-02,47.16
2002-07-03,46.74
2002-07-04,41.93
2002-07-05,45.32
2002-07-06,48.76
2002-07-07,49.63
2002-07-08,39.75
2002-07-09,58.15
2002-07-10,53.41
2002-07-11,64.56
2002-07-12,62.6
2002-07-13,59.03
2002-07-14,55.09
2002-07-15,52.38
2002-07-16,51.96
2002-07-17,48.09
2002-07-18,50.51
2002-07-19,54.42
2002-07-20,50.47
2002-07-21,57.41
2002-07-22,60.38
2002-07-23,48.09
2002-07-24,45.33
2002-07-25,50.47
2002-07-26,46.19
2002-07-27,47.71
2002-07-28,45.11
2002-07-29,58.36
2002-07-30,54.19
2002-07-31,49.55
2002-08-01,48.63
2002-08-02,45.07
2002-08-03,45.03
2002-08-04,41.45
2002-08-05,32.69
2002-08-06,38.6
2002-08-07,38.44
2002-08-08,43.33
2002-08-09,52.8
2002-08-10,47.11
2002-08-11,46.58
2002-08-12,50.36
2002-08-13,59.89
2002-08-14,51.42
2002-08-15,46.55
2002-08-16,46.24
2002-08-17,47.03
2002-08-18,41.7
2002-08-19,44.58
2002-08-20,40.45
2002-08-21,33.97
2002-08-22,39.6
2002-08-23,48.55
2002-08-24,43.46
2002-08-25,45.1
2002-08-26,39.16
2002-08-27,50.53
2002-08-28,55.67
2002-08-29,50.29
2002-08-30,51.65
2002-08-31,38.47
2002-09-01,42.96
2002-09-02,45.9
2002-09-03,46.83
2002-09-04,40.61
2002-09-05,34.91
2002-09-06,32.88
2002-09-07,34.04
2002-09-08,30.83
2002-09-09,35.09
2002-09-10,37.65
2002-09-11,39.72
2002-09-12,42.77
2002-09-13,43.55
2002-09-14,42.8
2002-09-15,50.33
2002-09-16,39.11
2002-09-17,46.82
2002-09-18,35.99
2002-09-19,40.96
2002-09-20,39.7
2002-09-21,48.73
2002-09-22,47.93
2002-09-23,47.16
2002-09-24,41.48
2002-09-25,44.6
2002-09-26,33.7
2002-09-27,35.12
2002-09-28,39.0
2002-09-29,36.01
2002-09-30,26.66
2002-10-01,24.35
2002-10-02,33.12
2002-10-03,29.01
2002-10-04,34.57
2002-10-05,34.51
2002-10-06,38.27
2002-10-07,36.61
2002-10-08,34.29
2002-10-09,32.71
2002-10-10,29.69
2002-10-11,21.05
2002-10-12,32.84
2002-10-13,26.47
2002-10-14,25.78
2002-10-15,41.67
2002-10-16,41.67
2002-10-17,29.27
2002-10-18,31.11
2002-10-19,28.5
2002-10-20,32.22
2002-10-21,39.28
2002-10-22,32.3
2002-10-23,27.92
2002-10-24,25.81
2002-10-25,24.55
2002-10-26,22.78
2002-10-27,20.26
2002-10-28,25.07
2002-10-29,17.76
2002-10-30,14.4
2002-10-31,12.99
2002-11-01,11.05
2002-11-02,5.53
2002-11-03,14.59
2002-11-04,14.54
2002-11-05,18.51
2002-11-06,28.02
2002-11-07,37.15
2002-11-08,37.36
2002-11-09,34.81
2002-11-10,31.09
2002-11-11,35.33
2002-11-12,37.31
2002-11-13,29.64
2002-11-14,25.9
2002-11-15,26.0
2002-11-16,35.93
2002-11-17,25.49
2002-11-18,23.03
2002-11-19,31.26
2002-11-20,29.1
2002-11-21,29.14
2002-11-22,25.78
2002-11-23,24.87
2002-11-24,31.44
2002-11-25,20.63
2002-11-26,16.73
2002-11-27,20.88
2002-11-28,22.69
2002-11-29,20.77
2002-11-30,21.65
2002-12-01,20.84
2002-12-02,19.04
2002-12-03,17.54
2002-12-04,23.43
2002-12-05,24.66
2002-12-06,24.23
2002-12-07,18.14
2002-12-08,17.5
2002-12-09,34.96
2002-12-10,31.88
2002-12-11,26.3
2002-12-12,28.72
2002-12-13,33.63
2002-12-14,34.28
2002-12-15,28.62
2002-12-16,21.56
2002-12-17,17.68
2002-12-18,20.67
2002-12-19,27.58
2002-12-20,30.09
2002-12-21,24.75
2002-12-22,21.37
2002-12-23,19.12
2002-12-24,21.14
2002-12-25,20.2
2002-12-26,32.09
2002-12-27,38.29
2002-12-28,32.02
2002-12-29,29.85
2002-12-30,30.9
2002-12-31,27.06
2003-01-01,27.08
2003-01-02,33.94
2003-01-03,30.6
2003-01-04,34.55
2003-01-05,28.04
2003-01-06,22.45
2003-01-07,23.47
2003-01-08,22.17
2003-01-09,25.31
2003-01-10,27.97
2003-01-11,27.56
2003-01-12,37.77
2003-01-13,37.94
2003-01-14,33.65
2003-01-15,31.57
2003-01-16,29.3
2003-01-17,27.46
2003-01-18,28.36
2003-01-19,24.92
2003-01-20,23.82
2003-01-21,33.86
2003-01-22,35.99
2003-01-23,28.59
2003-01-24,30.88
2003-01-25,39.63
2003-01-26,40.68
2003-01-27,25.28
2003-01-28,25.17
2003-01-29,28.84
2003-01-30,38.37
2003-01-31,34.9
2003-02-01,30.77
2003-02-02,24.39
2003-02-03,19.25
2003-02-04,19.21
2003-02-05,16.46
2003-02-06,22.14
2003-02-07,19.31
2003-02-08,14.09
2003-02-09,16.58
2003-02-10,17.2
2003-02-11,19.0
2003-02-12,25.21
2003-02-13,37.62
2003-02-14,32.58